Simultaneous Nadir Overpasses (SNOs) Predictions

Prediction of SNOs between GOES-15 and TERRA Satellite Orbit:

Table of predicted SNOs for the next 14.0 days since TLE Epoch: 7/30/2016
Index Date Time (GOES-15) GOES-15 Lat,Lon TERRA Lat,Lon Distance(km) Time Diff (sec)
1 07/31/2016 07:28:55 -0.05,-134.93 -0.05,-134.93 1.07 80
2 08/02/2016 07:16:43 -0.05,-134.85 0.59,-131.97 328.77 80
3 08/02/2016 19:40:36 0.08,-134.85 0.59,-137.11 257.53 80
4 08/04/2016 19:25:45 0.07,-134.77 -0.06,-134.15 69.92 80
5 08/06/2016 19:13:33 0.06,-134.68 -0.70,-131.19 397.15 80
6 08/07/2016 07:37:35 -0.09,-134.64 -0.44,-136.37 196.32 80
7 08/09/2016 07:22:42 -0.09,-134.55 0.15,-133.41 130.37 80
8 08/09/2016 19:46:37 0.12,-134.55 0.98,-138.56 456.20 80
9 08/11/2016 07:10:29
